Skip Page Navigation
NASA JPL Caltech
NASA Logo - Jet Propulsion Laboratory + View the NASA Portal
+ Near-Earth Object (NEO) Program
Search JPL
JPL Home Earth Solar System Stars & Galaxies Technology
JPL Solar System Dynamics
BODIES ORBITS EPHEMERIDES TOOLS PHYSICAL DATA DISCOVERY FAQ SITE MAP
JPL Small-Body Database Browser
Search: [ help ]  
38628 Huya (2000 EB173)
Classification: TransNeptunian Object          SPK-ID: 2038628
Ephemeris | Orbit Diagram | Orbital Elements | Physical Parameters | Discovery Circumstances ]

[ show orbit diagram ]
Orbital Elements at Epoch 2456400.5 (2013-Apr-18.0) TDB
Reference: JPL 19 (heliocentric ecliptic J2000)
 Element Value Uncertainty (1-sigma)   Units 
e .2739685923890054 6.6467e-05  
a 39.29818932469593 0.0045149 AU
q 28.53171971197234 0.00067785 AU
i 15.47463022950464 5.8997e-05 deg
node 169.3187017190689 0.00020402 deg
peri 67.65487661086276 0.0063813 deg
M 357.4571133640157 0.0038787 deg
tp 2457036.096850292303
(2015-Jan-13.59685029)
0.86634 JED
period 89982.33065810933
246.36
15.507
0.04246
d
yr
n .004000785458289931 6.8946e-07 deg/d
Q 50.06465893741951 0.0057518 AU
  Orbit Determination Parameters
   # obs. used (total)      149  
   data-arc span      5910 days (16.18 yr)  
   first obs. used      1996-04-09  
   last obs. used      2012-06-14  
   planetary ephem.      DE405  
   SB-pert. ephem.      SB405-CPV-2  
   condition code      3  
   fit RMS      .55058  
   data source      ORB  
   producer      Otto Matic  
   solution date      2012-Jul-09 15:04:52  

Additional Information
 Earth MOID = 27.5529 AU 
 T_jup = 5.227 
[ show covariance matrix ]

Ephemeris | Orbit Diagram | Orbital Elements | Physical Parameters | Discovery Circumstances ]

Physical Parameter Table
Parameter Symbol Value Units Sigma Reference Notes
absolute magnitude H 4.7 mag n/a PDS3 (MPO 26577)  
rotation period rot_per 13.50 h n/a Asteroid Lightcurve DataBase (Rev. 2013-May-01) [Result based on fragmentary lightcurve(s), may be completely wrong.]

38628 Huya           Discovered 2000 Mar. 10 by I. Ferrin at Merida.
Huya is one of the most representative gods in the infra-world of the Wayuu Indians of Venezuela. As such it is associated with the rain and winter, and lives in the celestial altitudes beyond the sun.
NOTE: some special characters may not display properly (any characters within {} are an attempt to place the proper accent above a character)
Reference: 20030501/MPCPages.arcLast Updated: 2003-10-02
Ephemeris | Orbit Diagram | Orbital Elements | Physical Parameters | Discovery Circumstances ]
ABOUT SSD CREDITS/AWARDS PRIVACY/COPYRIGHT GLOSSARY LINKS
FirstGov 2013-May-19 16:26 UT
(server date/time)  
NASA Home Page
Site Manager:   Donald K. Yeomans
Webmaster  Alan B. Chamberlin